Location: Degersen
(52.2871°N, 9.5716°E)
Time: 20:38:25
(UTC+00:00)

SL-12 R/B(2) - Pass Details

Date: 20 January 2026
Orbit: 1171 x 2178 km, 63.4° (Epoch: 16 February)

Event Time Altitude Azimuth Distance (km) Brightness Sun altitude
Exits shadow 05:31:34 - 231° (SW) 4,123 6.4 -16.0°
Reaches altitude 10° 05:33:47 10° 233° (SW) 3,369 5.9 -15.6°
Maximum altitude 05:42:03 78° 320° (NW) 1,562 4.4 -14.4°
Drops below altitude 10° 05:52:22 10° 48° (NE) 4,139 7.2 -12.9°
Sets 05:55:54 0° 50° (NE) 5,270 7.8 -12.4°
